(230628) = 2000 OG63 = 2003 HB54

Discovered at Anderson Mesa on 2003-04-24 by LONEOS.

Orbit

Orbit type: Main Belt

Note: WebGL enabled browser required.

epoch2023-09-13.0
epoch JD2460200.5
perihelion date2022-03-02.11995
perihelion JD2459640.61995
argument of perihelion (°)11.64077
ascending node (°)202.88011
inclination (°)1.84811
eccentricity0.1501504
perihelion distance (AU)2.0567150
Tisserand w.r.t. Jupiter3.5
ΔV w.r.t. Earth (km/sec)9.0
semimajor axis (AU)2.4200930
mean anomaly (°)146.57191
mean daily motion (°/day)0.26179160
aphelion distance (AU)2.783
period (years)3.76
P-vector [x]-0.82396060
P-vector [y]-0.52244270
P-vector [z]-0.21941414
Q-vector [x]0.56650835
Q-vector [y]-0.76806543
Q-vector [z]-0.29856956
absolute magnitude17.34
phase slope0.15
uncertainty0
referenceMPO 778623
observations used297
oppositions16
arc length (days)10542
first opposition used1994
last opposition used2023
residual rms (arc-secs)0.82
perturbers coarse indicatorM-v
perturbers precise indicator003Ek
first observation date used1994-12-28.0
last observation date used2023-11-08.0
computer nameMPCLINUX
JD of orbit computation2456937.470954
perihelion JD uncertainty (days)7.4283E-05
argument of perihelion uncertainty (°)1.3745E-04
ascending node uncertainty (°)1.3628E-04
inclination uncertainty (°)4.9652E-06
eccentricity uncertainty 5.9937E-08
perihelion distance uncertainty (AU)1.5030E-07
Minimum Orbit Intersection Distances (in AU)
for orbit epoch: 2460200.5, reference: E2023-VC7
Mercury1.61003
Venus1.33451
Earth1.04918
Mars0.44479
Jupiter2.17839
Saturn6.36939
Uranus16.229
Neptune27.0566

Observations

303 total observations over interval: 1994 12 28.42129 – 2023 11 08.314183
These data are available for download (format description).

Date (UT) J2000 RA J2000 Dec Magn Location Ref
1994 12 28.42129 08 35 42.00 +15 36 34.0   691 – Steward Observatory, Kitt Peak-Spacewatch MPS 80270
1994 12 28.44514 08 35 41.04 +15 36 35.6 20.9 V 691 – Steward Observatory, Kitt Peak-Spacewatch MPS 80270
1994 12 28.46992 08 35 40.04 +15 36 37.7   691 – Steward Observatory, Kitt Peak-Spacewatch MPS 80270
2000 07 30.29840 22 30 35.55 -06 40 17.3 19.9 R 807 – Cerro Tololo Observatory, La Serena MPS 19209
2000 07 30.40712 22 30 31.06 -06 40 41.5   807 – Cerro Tololo Observatory, La Serena MPS 19209
2000 07 31.32478 22 29 54.21 -06 44 12.2 19.8 R 807 – Cerro Tololo Observatory, La Serena MPS 19209
2000 07 31.40464 22 29 50.81 -06 44 30.7   807 – Cerro Tololo Observatory, La Serena MPS 19209
2003 04 23.99301 13 24 20.47 -08 32 34.6 20.0 R 621 – Bergisch Gladbach MPS 80270
2003 04 23.99689 13 24 20.33 -08 32 32.7   621 – Bergisch Gladbach MPS 80270
2003 04 24.00078 13 24 20.10 -08 32 32.1   621 – Bergisch Gladbach MPS 80270
2003 04 24.25861 13 24 08.02 -08 30 55.4 19.0 R 699 – Lowell Observatory-LONEOS MPS 80270
2003 04 24.27608 13 24 07.19 -08 30 48.4   699 – Lowell Observatory-LONEOS MPS 80270
2003 04 24.29351 13 24 06.33 -08 30 42.9   699 – Lowell Observatory-LONEOS MPS 80270
2003 04 24.31092 13 24 05.46 -08 30 36.7   699 – Lowell Observatory-LONEOS MPS 80270
2003 04 29.21164 13 20 24.24 -08 01 47.4 19.1   704 – Lincoln Laboratory ETS, New Mexico MPS 80270
2003 04 29.21177 13 20 24.21 -08 01 46.3 19.4   704 – Lincoln Laboratory ETS, New Mexico MPS 80270
2003 04 29.22358 13 20 23.68 -08 01 43.3 19.6   704 – Lincoln Laboratory ETS, New Mexico MPS 80270
2003 04 29.23559 13 20 23.17 -08 01 39.7 19.2   704 – Lincoln Laboratory ETS, New Mexico MPS 80270
2003 04 29.23560 13 20 23.16 -08 01 39.4 19.4   704 – Lincoln Laboratory ETS, New Mexico MPS 80270
2003 04 29.24752 13 20 22.67 -08 01 36.7 19.0   704 – Lincoln Laboratory ETS, New Mexico MPS 80270
2003 04 29.25568 13 20 22.22 -08 01 32.0 19.7 V 691 – Steward Observatory, Kitt Peak-Spacewatch MPS 80270
2003 04 29.26452 13 20 21.80 -08 01 28.7 18.6   704 – Lincoln Laboratory ETS, New Mexico MPS 80270
2003 04 29.27637 13 20 21.21 -08 01 25.1 19.1   704 – Lincoln Laboratory ETS, New Mexico MPS 80270
2003 04 29.28395 13 20 20.94 -08 01 22.6 19.6 V 691 – Steward Observatory, Kitt Peak-Spacewatch MPS 80270
2003 04 29.28814 13 20 20.76 -08 01 20.7 19.0   704 – Lincoln Laboratory ETS, New Mexico MPS 80270
2003 04 29.30005 13 20 20.15 -08 01 15.8 19.0   704 – Lincoln Laboratory ETS, New Mexico MPS 80270
2003 04 29.31334 13 20 19.59 -08 01 12.6 19.6 V 691 – Steward Observatory, Kitt Peak-Spacewatch MPS 80270
2003 05 04.91776 13 16 40.93 -07 31 54.3 19.8 R 621 – Bergisch Gladbach MPS 80270
2003 05 04.92165 13 16 40.76 -07 31 53.0   621 – Bergisch Gladbach MPS 80270
2003 05 04.92555 13 16 40.67 -07 31 51.6   621 – Bergisch Gladbach MPS 80270
2003 05 05.22278 13 16 30.34 -07 30 24.4 19.9 V 691 – Steward Observatory, Kitt Peak-Spacewatch MPS 80270
2003 05 05.24868 13 16 29.38 -07 30 17.1 20.0 V 691 – Steward Observatory, Kitt Peak-Spacewatch MPS 80270
2003 05 05.28087 13 16 28.16 -07 30 08.1 20.1 V 691 – Steward Observatory, Kitt Peak-Spacewatch MPS 80270
2004 09 15.22557 23 47 31.61 +00 08 18.7 21.1 V 691 – Steward Observatory, Kitt Peak-Spacewatch MPS 112860
2004 09 15.25395 23 47 30.04 +00 08 07.7 21.3 V 691 – Steward Observatory, Kitt Peak-Spacewatch MPS 112860
2004 09 15.28733 23 47 28.17 +00 07 54.5 21.0 V 691 – Steward Observatory, Kitt Peak-Spacewatch MPS 112860
2004 09 16.19033 23 46 39.77 +00 02 06.5 20.6 V 291 – LPL/Spacewatch II MPS 112860
2004 09 16.19429 23 46 39.55 +00 02 05.0 20.6 V 291 – LPL/Spacewatch II MPS 112860
2004 09 16.20043 23 46 39.22 +00 02 02.5 20.6 V 291 – LPL/Spacewatch II MPS 112860
2004 09 24.307567 23 39 26.341 -00 50 16.77 20.79 V 645 – Apache Point-Sloan Digital Sky Survey MPS 390354
2004 09 24.311039 23 39 26.146 -00 50 18.15 21.66   645 – Apache Point-Sloan Digital Sky Survey MPS 390354
2008 10 02.19537 01 17 14.41 +08 29 46.2 21.1 V 691 – Steward Observatory, Kitt Peak-Spacewatch MPS 257844
2008 10 02.21295 01 17 13.44 +08 29 39.4 20.9 V 691 – Steward Observatory, Kitt Peak-Spacewatch MPS 257844
2008 10 02.23054 01 17 12.48 +08 29 33.1 20.2 V 691 – Steward Observatory, Kitt Peak-Spacewatch MPS 257844
2008 10 06.19733 01 13 39.83 +08 05 43.0 20.7 V 691 – Steward Observatory, Kitt Peak-Spacewatch MPS 259181
2008 10 06.21491 01 13 38.82 +08 05 36.1 21.0 V 691 – Steward Observatory, Kitt Peak-Spacewatch MPS 259181
2008 10 06.23247 01 13 37.81 +08 05 30.3 21.3 V 691 – Steward Observatory, Kitt Peak-Spacewatch MPS 259181
2008 10 21.21657 01 00 09.39 +06 33 13.3 21.0 V G96 – Mt. Lemmon Survey MPS 260548
2008 10 21.22153 01 00 09.18 +06 33 11.9 20.7 V G96 – Mt. Lemmon Survey MPS 260548
2008 10 21.22651 01 00 08.89 +06 33 09.6 20.4 V G96 – Mt. Lemmon Survey MPS 260548
2008 10 21.23152 01 00 08.64 +06 33 07.3 21.0 V G96 – Mt. Lemmon Survey MPS 260548
2009 12 27.38953 08 14 05.72 +16 50 02.9   691 – Steward Observatory, Kitt Peak-Spacewatch MPS 308601
2009 12 27.40725 08 14 04.89 +16 50 04.4   691 – Steward Observatory, Kitt Peak-Spacewatch MPS 308601
2009 12 27.42495 08 14 04.06 +16 50 05.7   691 – Steward Observatory, Kitt Peak-Spacewatch MPS 308601
2010 01 12.16755 07 59 42.41 +17 25 39.8   691 – Steward Observatory, Kitt Peak-Spacewatch MPS 310156
2010 01 12.18525 07 59 41.30 +17 25 42.7   691 – Steward Observatory, Kitt Peak-Spacewatch MPS 310156
2010 01 12.20295 07 59 40.10 +17 25 45.9   691 – Steward Observatory, Kitt Peak-Spacewatch MPS 310156
2010 01 12.35978 07 59 30.01 +17 26 12.3 19.8 V G96 – Mt. Lemmon Survey MPS 310156
2010 01 12.36694 07 59 29.54 +17 26 13.2 20.3 V G96 – Mt. Lemmon Survey MPS 310156
2010 01 12.37417 07 59 29.07 +17 26 14.7 20.1 V G96 – Mt. Lemmon Survey MPS 310156
2010 01 12.38132 07 59 28.60 +17 26 15.9 20.1 V G96 – Mt. Lemmon Survey MPS 310156
2010 01 18.26966 07 53 11.41 +17 43 15.5 19.2   704 – Lincoln Laboratory ETS, New Mexico MPS 311162
2010 01 18.28216 07 53 10.46 +17 43 17.2 19.9   704 – Lincoln Laboratory ETS, New Mexico MPS 311162
2010 01 18.29469 07 53 09.70 +17 43 19.7 19.4   704 – Lincoln Laboratory ETS, New Mexico MPS 311162
2010 01 18.30720 07 53 08.93 +17 43 22.3 19.9   704 – Lincoln Laboratory ETS, New Mexico MPS 311162
2010 03 15.19208 07 23 33.18 +19 39 52.0 20.9 V G96 – Mt. Lemmon Survey MPS 319188
2010 03 15.19932 07 23 33.28 +19 39 52.0 20.7 V G96 – Mt. Lemmon Survey MPS 319188
2010 03 15.20661 07 23 33.43 +19 39 51.6 20.8 V G96 – Mt. Lemmon Survey MPS 319188
2011 06 27.30331 20 03 40.96 -17 07 43.4 20.0 V G96 – Mt. Lemmon Survey MPS 386243
2011 06 27.31145 20 03 40.53 -17 07 44.6 20.1 V G96 – Mt. Lemmon Survey MPS 386243
2011 06 27.32778 20 03 39.81 -17 07 46.1 19.9 V G96 – Mt. Lemmon Survey MPS 386243
2012 10 14.24809 02 48 45.17 +15 33 41.1 20.8 V 691 – Steward Observatory, Kitt Peak-Spacewatch MPS 437532
2012 10 14.26578 02 48 44.31 +15 33 36.8 21.1 V 691 – Steward Observatory, Kitt Peak-Spacewatch MPS 437532
2012 10 14.28345 02 48 43.45 +15 33 31.9 20.8 V 691 – Steward Observatory, Kitt Peak-Spacewatch MPS 437532
2012 12 06.17575 02 05 13.02 +11 34 37.7 22.4 V G96 – Mt. Lemmon Survey MPS 445780
2012 12 06.18194 02 05 12.84 +11 34 37.6 22.2 V G96 – Mt. Lemmon Survey MPS 445780
2012 12 06.18816 02 05 12.66 +11 34 35.9 22.1 V G96 – Mt. Lemmon Survey MPS 445780
2012 12 06.19429 02 05 12.55 +11 34 35.7 21.8 V G96 – Mt. Lemmon Survey MPS 445780
2013 12 26.46858 10 33 13.25 +06 34 58.7 20.3 V G96 – Mt. Lemmon Survey MPS 493175
2013 12 26.47443 10 33 13.38 +06 34 58.0 20.2 V G96 – Mt. Lemmon Survey MPS 493175
2013 12 26.48028 10 33 13.48 +06 34 56.6 21.2 V G96 – Mt. Lemmon Survey MPS 493175
2013 12 26.48613 10 33 13.64 +06 34 55.9 21.5 V G96 – Mt. Lemmon Survey MPS 493175
2014 01 28.35320 10 30 52.68 +06 29 28.4 20.3 V 691 – Steward Observatory, Kitt Peak-Spacewatch MPS 499965
2014 01 28.37090 10 30 52.04 +06 29 31.7 20.2 V 691 – Steward Observatory, Kitt Peak-Spacewatch MPS 499965
2014 01 28.38857 10 30 51.39 +06 29 35.5 20.0 V 691 – Steward Observatory, Kitt Peak-Spacewatch MPS 499965
2014 01 30.50062 10 29 37.15 +06 36 17.5   691 – Steward Observatory, Kitt Peak-Spacewatch MPS 499965
